Regional Weather Roundup
Issued by NWS

Home | Current Version | Previous Version | Graphics & Text | Print | Product List | Glossary Off
Versions: 1 2 3 4 5 6 7 8 9 10 11 12 13 14 15 16 17 18 19 20 21 22 23 24 25 26 27 28 29 30 31 32 33 34 35 36 37 38 39 40 41 42 43 44 45 46 47 48 49 50

000
ASUS45 KBOI 150410
RWRID
WEATHER ROUNDUP FOR IDAHO
NATIONAL WEATHER SERVICE BOISE ID
1000 PM MDT SUN SEP 14 2014

NOTE: "FAIR" INDICATES FEW OR NO CLOUDS BELOW 12000 FEET
WITH NO SIGNIFICANT WEATHER AND/OR OBSTRUCTIONS TO VISIBILITY

IDZ012-014-150500-
SOUTHWEST IDAHO


CITY           SKY/WX    TMP DP  RH WIND       PRES   REMARKS
BOISE          CLEAR     69  37  30 CALM      29.94R
CALDWELL       CLEAR     61  37  41 E9        29.94R
MOUNTAIN HOME  CLEAR     69  34  27 VRB2      29.94R
$$

IDZ016-017-150500-
SOUTHCENTRAL IDAHO


CITY           SKY/WX    TMP DP  RH WIND       PRES   REMARKS
BURLEY         PTCLDY    64  42  44 SE5       30.00R
JEROME         CLEAR     63  38  39 E7        30.00R
TWIN FALLS     CLEAR     66  34  30 S10       30.00R
$$

IDZ019>023-150500-
SOUTHEAST IDAHO


CITY           SKY/WX    TMP DP  RH WIND       PRES   REMARKS
IDAHO FALLS    CLEAR     60  36  40 CALM      30.05R
POCATELLO      CLEAR     66  26  22 S10       30.03S
REXBURG        CLEAR     65  29  25 SE3       30.05S
$$

IDZ006-010-011-018-031-032-150500-
CENTRAL IDAHO MOUNTAINS


CITY           SKY/WX    TMP DP  RH WIND       PRES   REMARKS
MCCALL         CLEAR     59  31  34 NW6       30.06R
HAILEY         CLEAR     61  36  39 NW9       30.10R
STANLEY          N/A     50  23  34 S3        30.18R
SALMON         CLEAR     55  36  47 CALM      30.03R
CHALLIS        CLEAR     61  25  25 NW6       30.06R
$$

IDZ002-004-006-007-026-150500-
NORTHERN IDAHO


CITY           SKY/WX    TMP DP  RH WIND       PRES   REMARKS
LEWISTON       CLEAR     69  28  21 S8        29.93R
LOWELL           N/A     54  47  77 NW5       30.00R
COEUR D`ALENE  CLEAR     57  37  47 NE8       29.98S
MULLAN PASS    CLEAR     55  27  34 SE6       30.15S
$$


USA.gov is the U.S. government's official web portal to all federal, state and local government web resources and services.